User: anonymous   Login
Location: Raven Hill Discovery Center
(45.1336°N, 85.0553°W)
Time: 10:49:51
(UTC-04:00)
Language:

Cosmos 1470 - Orbit

View from above orbital plane
View from above orbital plane
View from above satellite
View from above satellite

Ground track
Ground track

The orbit data is extracted from the following two-line orbital elements,

1 14147U 83061A   15245.18319041  .00000840  00000-0  50720-4 0  9999
2 14147  82.4854 320.7400 0014053 351.0895   9.0082 15.09309491506113
Epoch (UTC): 02 September 2015 04:23:47
Eccentricity: 0.0014053
inclination: 82.4854°
perigee height: 528 km
apogee height: 548 km
right ascension of ascending node: 320.7400°
argument of perigee: 351.0895°
revolutions per day: 15.09309491
mean anomaly at epoch: 9.0082°
orbit number at epoch: 50611

The dashed part of the orbit path shows where the satellite is in the earth's shadow,  

DLR